Wind_Speed
29 29 26 25 24 24 23 22 21 22 20 18 17 16 15 14 14 14 13 12 12 12 13 13 12 11 10 11 11 10 11 11 11 12 13 14 14 15 15 15 15 14 15 14
31 29 28 28 27 26 24 23 23 23 21 19 18 17 16 15 15 15 15 14 14 14 14 14 13 11 10 10 11 10 10 11 12 13 14 15 16 17 17 17 16 16 16 16
31 29 30 29 28 26 25 24 24 23 21 20 18 17 17 16 16 16 15 14 14 14 13 12 12 11 11 11 11 12 12 12 13 13 14 15 16 17 18 17 17 17 17 17
33 32 31 29 28 27 26 26 25 23 21 20 19 17 18 17 16 16 16 15 14 14 13 13 12 11 12 12 13 13 13 13 14 14 14 15 16 18 19 20 19 19 19 18
32 31 30 29 28 27 27 27 25 23 22 21 20 18 18 18 17 16 16 16 15 14 14 14 13 13 13 13 13 13 14 15 16 17 17 17 18 18 19 21 22 22 21 19
32 32 31 29 29 29 28 27 26 24 23 23 21 19 18 18 17 16 16 16 16 15 15 15 14 14 14 14 14 14 15 15 15 16 16 17 19 19 19 19 20 21 21 21
31 31 31 31 31 30 29 27 26 25 24 23 23 20 20 19 17 17 17 16 16 15 15 15 15 14 14 15 15 15 16 16 15 16 16 16 17 19 19 19 20 21 21 20
30 30 31 31 31 30 29 27 25 23 21 21 23 21 20 17 17 16 16 16 15 15 14 15 15 14 14 14 15 15 15 16 15 15 15 15 16 17 19 20 20 20 20 21
29 29 29 30 30 30 29 28 26 24 22 20 21 20 18 16 16 16 15 15 15 14 13 13 13 13 14 14 14 14 14 14 14 15 15 15 15 16 17 19 20 20 20 20
29 29 28 29 30 30 29 28 29 26 23 20 20 18 17 16 16 16 15 15 15 14 14 14 13 13 14 14 14 14 14 14 15 15 15 16 15 16 17 17 19 20 19 19
28 28 28 29 30 29 30 30 28 26 24 19 17 17 17 16 15 15 14 13 13 13 13 14 14 14 14 14 15 15 14 15 15 15 15 15 15 15 16 17 18 18 19 18
28 27 27 28 28 28 28 28 27 26 24 22 17 17 17 16 16 16 15 14 14 13 14 15 15 15 15 15 14 14 14 14 14 14 14 15 15 15 15 15 15 16 18 19
28 29 28 29 30 30 29 28 27 25 23 21 19 18 17 16 16 16 15 15 14 14 14 14 14 15 15 15 15 14 13 13 13 13 13 13 14 14 15 15 14 15 17 18
27 28 27 26 25 27 28 28 26 25 23 21 20 19 18 16 16 16 15 15 14 14 14 13 13 13 14 15 15 14 13 12 11 12 12 13 13 13 14 15 15 16 17 18
26 27 27 27 27 26 26 26 27 26 23 21 20 19 19 17 16 17 16 15 14 13 13 13 13 13 13 13 13 14 14 13 12 12 13 13 14 14 14 15 16 17 18 18
26 26 26 27 27 26 26 27 26 26 24 22 21 21 20 18 18 17 16 16 15 14 13 13 14 14 14 14 14 14 14 14 13 13 14 14 15 15 15 15 15 17 18 18
26 25 26 26 26 27 28 27 27 25 24 23 22 21 20 19 18 17 17 16 16 15 15 14 14 14 15 15 14 15 15 15 15 15 15 15 15 16 16 16 17 17 17 18
27 26 25 25 27 28 26 26 26 25 24 23 23 22 20 20 19 18 17 17 17 17 17 16 16 15 15 15 15 15 15 16 16 16 15 15 16 16 17 17 17 18 18 19
28 27 27 27 28 28 28 26 26 25 25 23 22 21 21 20 20 20 18 18 18 18 17 18 17 17 17 16 16 16 17 17 17 17 17 17 17 17 17 18 19 19 20 21
29 28 28 28 27 28 28 26 25 25 25 24 23 22 21 20 21 20 19 19 19 19 18 18 18 18 18 17 17 17 17 17 17 17 16 17 18 18 18 18 18 18 19 20
30 29 29 28 28 27 28 27 26 26 25 24 23 22 22 22 22 21 21 20 20 20 19 19 19 18 18 18 17 17 17 18 18 18 17 17 18 19 18 18 18 19 19 19
31 30 30 29 28 28 28 27 28 27 25 24 23 23 23 22 22 22 21 21 21 20 20 20 20 20 19 19 18 18 18 19 18 18 18 18 18 19 19 19 20 21 21 21
33 32 31 31 30 28 27 27 27 28 27 26 25 24 23 23 23 22 22 22 22 21 21 21 21 21 21 20 20 20 20 20 20 20 20 20 20 20 21 21 22 23 23 23
31 30 30 30 29 26 25 25 25 26 27 27 26 25 24 23 22 22 22 22 22 21 21 21 21 21 22 21 21 22 21 21 21 21 21 21 21 22 22 23 24 24 25 25
29 29 29 29 28 27 25 24 25 26 27 28 27 25 24 24 23 22 22 22 22 22 22 22 21 21 21 22 22 22 22 22 23 23 23 23 23 23 23 24 25 26 26 26
28 29 29 29 28 27 26 25 25 26 26 26 26 25 24 23 23 23 23 23 22 22 22 22 22 21 22 22 22 22 22 23 23 24 24 23 23 24 24 25 25 26 27 27
Wind_Direction
236 236 235 235 235 236 237 238 241 244 246 244 242 244 247 249 251 253 254 259 266 268 269 274 273 270 270 259 247 248 246 246 246 245 242 239 239 238 240 240 238 236 233 232
234 234 233 232 232 233 235 235 239 243 243 241 241 242 246 246 249 249 252 257 263 267 271 272 273 274 270 263 257 254 251 248 248 248 247 243 242 242 243 242 239 236 235 234
234 232 232 232 232 232 232 232 235 240 243 242 241 244 247 246 246 248 253 259 263 266 269 268 266 269 269 264 262 256 254 252 251 252 255 250 245 243 243 242 238 236 235 235
231 229 229 229 229 230 230 230 233 236 237 239 236 238 248 246 246 247 251 257 261 263 264 263 263 267 271 267 262 258 256 257 254 254 257 257 252 248 244 242 241 241 239 237
231 230 228 228 227 226 227 228 230 233 235 237 239 234 245 247 245 247 251 254 258 259 260 261 262 265 270 268 261 260 261 265 259 256 258 257 254 249 246 242 242 242 240 237
227 226 226 224 223 223 224 225 227 231 233 236 237 235 239 246 246 250 252 253 256 256 258 258 259 265 269 267 262 261 262 263 261 260 262 260 253 251 249 244 241 240 238 235
226 225 224 222 222 222 222 222 224 228 232 233 237 237 240 245 248 251 252 251 252 256 259 257 256 260 265 264 262 261 261 262 263 262 263 260 255 252 247 242 240 239 238 236
226 225 223 222 222 224 222 220 220 225 231 234 241 240 244 246 247 248 249 250 251 255 257 254 254 255 261 264 265 264 263 263 263 262 261 257 253 251 248 244 239 239 237 234
221 223 222 221 220 221 220 218 219 223 225 228 241 243 245 243 242 243 245 249 249 252 254 253 252 255 261 262 261 262 265 264 264 261 259 256 251 252 251 245 240 240 237 236
218 220 221 219 218 218 219 219 218 219 223 227 239 244 244 240 238 240 246 250 249 249 250 253 255 258 260 260 260 262 265 265 265 263 260 256 251 251 250 247 243 239 238 238
215 216 218 218 217 218 218 217 219 221 223 222 235 243 240 237 236 238 244 246 245 245 248 251 254 256 257 260 261 262 264 267 266 264 259 252 248 249 246 245 243 241 239 237
212 211 215 217 217 216 218 219 219 221 226 221 223 241 239 235 237 238 242 246 244 245 251 254 259 259 257 259 262 263 267 269 267 260 253 249 246 246 243 243 244 244 241 238
211 211 210 213 216 215 216 216 218 219 225 225 222 235 237 236 238 239 241 245 246 250 254 261 266 263 258 257 259 265 267 265 263 258 251 244 243 243 240 241 245 245 241 240
211 212 210 214 218 217 217 217 218 219 221 225 223 228 236 236 238 238 239 243 249 254 256 260 263 261 257 258 259 260 259 261 260 257 253 247 245 244 243 243 245 245 244 243
211 212 210 210 214 218 219 219 219 221 221 224 226 228 231 235 236 236 238 243 249 255 258 260 262 261 260 261 260 258 258 260 264 260 254 251 247 246 246 248 249 247 246 246
212 212 212 213 215 218 219 219 219 221 221 222 223 226 229 233 235 236 238 242 247 252 258 260 259 259 260 261 260 258 259 260 262 263 257 251 249 249 250 250 253 252 251 247
212 212 213 214 215 218 220 219 220 222 221 221 223 226 227 231 234 236 240 242 243 250 256 260 261 259 261 260 258 256 258 259 259 261 258 253 251 251 250 251 253 255 253 248
212 211 212 214 216 218 219 220 220 221 219 218 220 222 223 228 231 235 240 245 247 252 257 261 263 262 261 262 258 258 259 260 260 260 257 254 254 253 251 251 253 253 251 249
213 212 213 215 218 221 221 217 217 218 219 218 219 220 222 227 231 236 242 247 249 252 257 261 263 264 264 263 261 260 260 259 260 259 257 255 253 254 254 254 254 254 251 249
214 214 215 216 218 221 222 218 217 220 221 220 220 221 225 229 233 237 242 247 250 254 257 260 263 264 264 264 263 261 259 259 260 259 257 254 251 251 252 254 254 255 252 252
215 216 216 216 218 222 221 218 217 220 221 221 222 223 226 231 237 241 245 248 252 254 257 259 260 262 263 263 261 260 260 262 262 258 257 255 253 251 251 253 254 254 253 253
216 218 217 217 218 222 222 221 221 223 224 224 224 226 230 234 239 242 246 248 251 253 256 258 259 260 261 261 260 260 260 262 264 260 257 257 255 254 254 254 255 256 256 255
218 219 219 220 220 222 223 225 226 226 225 224 224 227 232 236 239 243 246 248 250 254 257 258 258 260 260 260 259 259 260 262 262 260 258 257 256 256 257 256 257 258 258 257
218 218 219 221 222 222 223 224 225 224 223 223 226 228 231 235 238 242 244 246 249 253 256 257 258 259 258 258 259 259 260 262 262 261 260 259 259 259 259 260 259 258 258 258
216 217 217 218 217 218 218 220 221 221 221 222 225 229 231 233 237 240 244 247 250 253 256 259 260 259 258 258 259 258 260 261 261 261 262 262 262 262 261 261 261 260 260 260
214 215 215 214 213 214 215 217 219 221 221 223 225 227 229 231 236 241 246 248 250 254 257 259 260 260 259 259 260 260 258 258 259 260 262 263 262 261 262 263 264 263 263 263
Height
5835 5839 5843 5847 5851 5854 5856 5859 5860 5862 5863 5866 5868 5870 5871 5872 5873 5874 5875 5875 5875 5875 5875 5874 5874 5873 5873 5872 5873 5874 5875 5876 5877 5878 5879 5880 5881 5882 5883 5883 5885 5886 5888 5889
5829 5833 5838 5840 5844 5847 5851 5854 5856 5857 5859 5862 5864 5866 5868 5869 5870 5871 5871 5872 5872 5872 5872 5871 5871 5871 5871 5871 5871 5871 5872 5874 5874 5875 5876 5877 5878 5878 5879 5880 5882 5883 5885 5886
5823 5828 5830 5834 5838 5842 5845 5849 5851 5852 5855 5858 5861 5863 5864 5865 5866 5867 5868 5868 5869 5869 5869 5869 5869 5869 5869 5868 5868 5869 5869 5870 5871 5872 5873 5873 5874 5875 5876 5877 5878 5880 5881 5883
5814 5819 5824 5828 5832 5836 5840 5843 5845 5848 5851 5854 5857 5861 5861 5861 5863 5864 5865 5865 5866 5866 5866 5866 5866 5866 5866 5866 5865 5865 5866 5867 5868 5868 5869 5870 5871 5872 5873 5873 5875 5876 5878 5879
5808 5813 5818 5822 5827 5831 5834 5837 5841 5844 5847 5850 5853 5856 5859 5858 5859 5860 5861 5862 5862 5863 5863 5863 5863 5863 5863 5862 5862 5863 5863 5863 5864 5865 5866 5866 5867 5868 5869 5870 5871 5872 5874 5876
5802 5806 5811 5817 5821 5824 5828 5832 5836 5839 5843 5846 5849 5852 5855 5854 5855 5856 5857 5857 5858 5859 5859 5860 5860 5860 5860 5859 5859 5859 5860 5860 5860 5861 5861 5862 5863 5864 5865 5865 5867 5868 5870 5872
5795 5800 5805 5810 5814 5818 5823 5828 5832 5835 5838 5842 5844 5846 5850 5849 5851 5852 5852 5853 5854 5855 5855 5856 5856 5856 5856 5856 5856 5856 5856 5856 5856 5857 5857 5857 5858 5859 5860 5862 5863 5865 5866 5868
5790 5795 5799 5804 5809 5813 5818 5824 5830 5834 5836 5839 5839 5841 5844 5845 5846 5847 5848 5849 5850 5851 5851 5852 5852 5852 5852 5852 5852 5852 5852 5853 5853 5853 5853 5853 5854 5855 5857 5858 5859 5861 5862 5865
5785 5790 5794 5799 5803 5808 5813 5818 5825 5829 5832 5835 5836 5837 5839 5840 5842 5843 5844 5845 5846 5847 5848 5848 5848 5849 5849 5849 5848 5849 5848 5848 5848 5849 5849 5850 5851 5852 5853 5854 5856 5857 5859 5861
5779 5784 5788 5792 5797 5802 5808 5813 5817 5822 5826 5831 5833 5833 5835 5836 5838 5839 5840 5841 5842 5843 5844 5845 5845 5845 5845 5845 5845 5845 5845 5844 5845 5845 5845 5846 5847 5848 5849 5851 5852 5853 5855 5857
5774 5779 5783 5787 5792 5797 5802 5807 5812 5818 5822 5828 5830 5833 5831 5832 5834 5835 5836 5837 5838 5839 5840 5841 5841 5841 5841 5842 5842 5842 5841 5841 5841 5841 5841 5842 5843 5844 5845 5847 5848 5849 5851 5853
5769 5774 5779 5783 5788 5792 5798 5803 5808 5813 5817 5821 5827 5830 5826 5828 5830 5831 5832 5834 5835 5836 5836 5837 5837 5837 5837 5838 5838 5838 5838 5837 5837 5837 5837 5838 5839 5840 5842 5843 5844 5846 5847 5849
5764 5769 5774 5779 5784 5788 5792 5797 5803 5808 5812 5816 5822 5825 5823 5824 5826 5827 5829 5830 5831 5832 5833 5833 5833 5833 5833 5834 5834 5834 5834 5834 5833 5833 5834 5835 5836 5837 5839 5840 5841 5842 5844 5845
5760 5765 5772 5778 5781 5784 5788 5793 5798 5803 5807 5812 5816 5819 5819 5820 5822 5824 5825 5826 5827 5828 5829 5829 5830 5829 5829 5830 5830 5830 5830 5831 5830 5830 5831 5832 5833 5834 5835 5836 5838 5839 5840 5841
5755 5761 5766 5772 5776 5780 5785 5789 5793 5798 5803 5808 5811 5813 5815 5816 5818 5820 5821 5822 5823 5824 5825 5825 5826 5826 5826 5826 5826 5827 5827 5828 5828 5828 5828 5829 5830 5831 5832 5833 5834 5835 5836 5837
5751 5756 5761 5766 5771 5775 5780 5784 5789 5793 5798 5802 5806 5808 5810 5812 5814 5816 5817 5819 5820 5821 5822 5822 5822 5822 5822 5823 5823 5823 5824 5824 5824 5824 5825 5825 5826 5827 5828 5829 5830 5831 5832 5833
5747 5752 5757 5762 5767 5770 5774 5779 5784 5788 5793 5797 5801 5804 5806 5808 5810 5812 5813 5815 5816 5817 5818 5818 5818 5819 5819 5819 5819 5820 5820 5820 5820 5821 5821 5821 5822 5823 5823 5825 5826 5826 5827 5827
5743 5748 5753 5758 5762 5766 5772 5774 5779 5783 5787 5791 5795 5798 5801 5803 5805 5807 5809 5810 5812 5813 5813 5814 5814 5814 5815 5815 5815 5816 5816 5816 5816 5816 5817 5817 5818 5818 5819 5820 5821 5821 5822 5823
5738 5743 5748 5753 5756 5761 5766 5770 5774 5779 5783 5787 5790 5793 5796 5799 5801 5802 5804 5806 5807 5808 5809 5809 5809 5810 5810 5810 5811 5811 5811 5812 5812 5812 5812 5813 5813 5814 5815 5815 5816 5816 5817 5818
5733 5738 5743 5747 5752 5756 5761 5765 5770 5775 5778 5782 5785 5789 5792 5794 5796 5798 5799 5801 5802 5803 5804 5804 5805 5805 5805 5806 5806 5806 5807 5807 5807 5807 5808 5808 5809 5809 5810 5811 5811 5812 5812 5813
5727 5732 5736 5741 5746 5751 5754 5760 5765 5770 5774 5777 5780 5783 5787 5789 5792 5794 5794 5796 5797 5798 5799 5799 5800 5800 5800 5801 5801 5801 5802 5802 5802 5802 5803 5803 5804 5804 5805 5806 5806 5807 5807 5808
5721 5726 5731 5736 5741 5747 5749 5754 5759 5763 5768 5771 5775 5778 5781 5784 5786 5788 5789 5791 5792 5793 5793 5794 5794 5795 5795 5796 5796 5796 5797 5797 5797 5797 5798 5798 5798 5799 5800 5801 5802 5802 5803 5803
5714 5720 5724 5730 5736 5739 5743 5748 5752 5757 5761 5766 5769 5773 5776 5778 5780 5782 5784 5785 5786 5787 5788 5789 5789 5790 5790 5790 5790 5791 5791 5791 5792 5792 5792 5793 5793 5794 5795 5795 5796 5797 5797 5798
5708 5713 5719 5724 5728 5733 5738 5742 5746 5750 5755 5759 5763 5767 5770 5772 5775 5777 5778 5780 5781 5782 5782 5783 5784 5784 5784 5784 5784 5785 5785 5786 5786 5787 5787 5787 5788 5788 5789 5789 5790 5791 5791 5792
5702 5708 5713 5718 5723 5727 5732 5736 5740 5745 5749 5753 5757 5761 5764 5766 5769 5771 5772 5774 5775 5776 5777 5777 5778 5778 5778 5778 5778 5779 5779 5780 5781 5781 5781 5782 5782 5782 5783 5783 5783 5784 5784 5785
5697 5702 5707 5712 5718 5722 5727 5731 5735 5739 5743 5748 5751 5755 5758 5760 5763 5765 5766 5768 5769 5770 5771 5771 5772 5772 5772 5772 5772 5772 5773 5773 5774 5774 5775 5775 5776 5776 5776 5776 5776 5776 5777 5777